Christchurch, New Zealand

2:20 PM NZDT on October 24, 2017 (GMT +1300)
Christchurch International

Weather History for NZCH - April, 2014

Change the Weather History Date:

Wednesday, April 9, 2014

  Actual Average Record
Temperature  
Mean Temperature 54 °F -  
Max Temperature 57 °F 59 °F 80 °F (1998)
Min Temperature 50 °F 41 °F 32 °F (2003)
Degree Days  
Heating Degree Days 12    
Growing Degree Days 4 (Base 50)    
Moisture  
Dew Point 52 °F    
Average Humidity 96    
Maximum Humidity 100    
Minimum Humidity 82    
Precipitation  
Precipitation 0.00 in - - ()
Sea Level Pressure  
Sea Level Pressure 30.12 in    
Wind  
Wind Speed 3 mph ()    
Max Wind Speed 10 mph    
Max Gust Speed -    
Visibility 5.9 miles    
Events Rain    
Averages and records for this station are not official NWS values.
T = Trace of Precipitation, MM = Missing Value Source: Averaged Metar Reports

Daily Weather History Graph

Daily Weather History Graph

Search for Another Location

Airport or City:

Trip Planner

Search our weather history database for the weather conditions in past years. The results will help you decide how hot, cold, wet, or windy it might be!

Date:

Astronomy

Apr. 09, 2014 Rise Set
Actual Time 6:55 AM NZST 6:07 PM NZST
Civil Twilight 6:26 AM NZST 6:35 PM NZST
Nautical Twilight 5:53 AM NZST 7:08 PM NZST
Astronomical Twilight 5:20 AM NZST 7:42 PM NZST
Moon 2:49 PM NZST (4/9) 12:34 AM NZST (4/9)
Length of Visible Light 12h 09m
Length of Day
11h 12m
Waxing Gibbous, 65% of the Moon is Illuminated
Apr 9
Waxing Gibbous
Apr 15
Full
Apr 22
Last Quarter
Apr 29
New
May 7
First Quarter

Hourly Weather History & Observations

Time (NZST) Temp. Dew Point Humidity Pressure Visibility Wind Dir Wind Speed Gust Speed Precip Events Conditions
12:00 AM 51.8 °F 51.8 °F 100% 30.18 in 6.2 mi Calm Calm - N/A   Overcast
12:30 AM 53.6 °F 51.8 °F 94% 30.18 in 6.2 mi South 1.2 mph - N/A   Overcast
1:00 AM 53.6 °F 51.8 °F 94% 30.18 in 6.2 mi Calm Calm - N/A   Overcast
1:30 AM 51.8 °F 51.8 °F 100% 30.15 in 6.2 mi Calm Calm - N/A   Overcast
2:00 AM 51.8 °F 51.8 °F 100% 30.15 in 6.2 mi Calm Calm - N/A   Overcast
2:30 AM 51.8 °F 51.8 °F 100% 30.15 in 6.2 mi Calm Calm - N/A   Mostly Cloudy
3:00 AM 51.8 °F 51.8 °F 100% 30.12 in 6.2 mi Calm Calm - N/A   Overcast
3:30 AM 51.8 °F 51.8 °F 100% 30.12 in 6.2 mi Calm Calm - N/A   Overcast
4:00 AM 51.8 °F 51.8 °F 100% 30.12 in 6.2 mi Calm Calm - N/A   Mostly Cloudy
4:30 AM 51.8 °F 51.8 °F 100% 30.12 in 6.2 mi Calm Calm - N/A   Overcast
5:00 AM 51.8 °F 51.8 °F 100% 30.09 in 5.0 mi Calm Calm - N/A   Overcast
5:30 AM 51.8 °F 51.8 °F 100% 30.09 in 5.0 mi NNE 2.3 mph - N/A   Overcast
6:00 AM 51.8 °F 51.8 °F 100% 30.09 in 6.2 mi North 1.2 mph - N/A   Mostly Cloudy
6:30 AM 51.8 °F 51.8 °F 100% 30.09 in 3.7 mi NNE 3.5 mph - N/A   Scattered Clouds
7:00 AM 51.8 °F 51.8 °F 100% 30.09 in 6.2 mi NNW 2.3 mph - N/A Rain Light Rain Showers
7:30 AM 50.0 °F 50.0 °F 100% 30.09 in 3.7 mi NNE 2.3 mph - N/A   Scattered Clouds
8:00 AM 51.8 °F 51.8 °F 100% 30.09 in 6.2 mi Calm Calm - N/A   Overcast
8:30 AM 53.6 °F 53.6 °F 100% 30.09 in 6.2 mi Calm Calm - N/A   Mostly Cloudy
9:00 AM 53.6 °F 53.6 °F 100% 30.09 in 6.2 mi SSW 3.5 mph - N/A   Overcast
9:30 AM 53.6 °F 53.6 °F 100% 30.09 in 6.2 mi SW 2.3 mph - N/A   Mostly Cloudy
10:00 AM 55.4 °F 53.6 °F 94% 30.09 in 5.6 mi SSW 4.6 mph - N/A   Mostly Cloudy
10:30 AM 55.4 °F 53.6 °F 94% 30.09 in 6.2 mi South 4.6 mph - N/A   Overcast
11:00 AM 55.4 °F 51.8 °F 88% 30.09 in 6.2 mi SSW 3.5 mph - N/A   Overcast
11:30 AM 57.2 °F 53.6 °F 88% 30.09 in 6.2 mi SSW 1.2 mph - N/A   Overcast
12:00 PM 57.2 °F 53.6 °F 88% 30.09 in 6.2 mi SW 2.3 mph - N/A   Overcast
12:30 PM 57.2 °F 51.8 °F 82% 30.09 in 6.2 mi SSW 5.8 mph - N/A   Overcast
1:00 PM 57.2 °F 53.6 °F 88% 30.09 in 6.2 mi SSW 5.8 mph - N/A   Overcast
1:30 PM 57.2 °F 53.6 °F 88% 30.06 in 6.2 mi SSW 6.9 mph - N/A   Overcast
2:00 PM 57.2 °F 53.6 °F 88% 30.06 in 6.2 mi South 9.2 mph - N/A   Overcast
2:30 PM 57.2 °F 53.6 °F 88% 30.06 in 6.2 mi South 10.4 mph - N/A   Mostly Cloudy
3:00 PM 57.2 °F 53.6 °F 88% 30.09 in 6.2 mi South 9.2 mph - N/A   Overcast
3:30 PM 57.2 °F 53.6 °F 88% 30.09 in 6.2 mi South 8.1 mph - N/A   Mostly Cloudy
4:00 PM 57.2 °F 53.6 °F 88% 30.09 in 6.2 mi SSW 9.2 mph - N/A   Mostly Cloudy
4:30 PM 55.4 °F 53.6 °F 94% 30.09 in 4.3 mi SSW 10.4 mph - N/A   Drizzle
5:00 PM 55.4 °F 53.6 °F 94% 30.09 in 6.2 mi SSW 9.2 mph - N/A   Drizzle
5:30 PM 53.6 °F 53.6 °F 100% 30.12 in 6.2 mi South 9.2 mph - N/A   Light Drizzle
6:00 PM 53.6 °F 51.8 °F 94% 30.12 in 6.2 mi SSW 9.2 mph - N/A   Light Drizzle
6:30 PM 53.6 °F 51.8 °F 94% 30.12 in 6.2 mi SSW 8.1 mph - N/A   Mostly Cloudy
7:00 PM 53.6 °F 51.8 °F 94% 30.15 in 6.2 mi SSW 8.1 mph - N/A   Overcast
7:30 PM 53.6 °F 51.8 °F 94% 30.15 in 6.2 mi SSW 8.1 mph - N/A   Drizzle
8:00 PM 51.8 °F 51.8 °F 100% 30.18 in 5.0 mi SW 6.9 mph - N/A   Drizzle
8:30 PM 51.8 °F 51.8 °F 100% 30.18 in 5.0 mi SSW 6.9 mph - N/A   Drizzle
9:00 PM 51.8 °F 51.8 °F 100% 30.18 in 3.7 mi SSW 5.8 mph - N/A   Drizzle
9:30 PM 51.8 °F 51.8 °F 100% 30.21 in 5.6 mi WSW 4.6 mph - N/A Rain Light Rain
10:00 PM 51.8 °F 51.8 °F 100% 30.21 in 6.2 mi WSW 5.8 mph - N/A   Drizzle
10:30 PM 51.8 °F 51.8 °F 100% 30.21 in 6.2 mi WSW 4.6 mph - N/A   Drizzle
11:00 PM 51.8 °F 51.8 °F 100% 30.21 in 6.2 mi WSW 5.8 mph - N/A   Drizzle
11:30 PM 53.6 °F 51.8 °F 94% 30.21 in 6.2 mi WSW 5.8 mph - N/A   Drizzle